N850LX OEMA-OEJN

Flight info

Callsign N850LX
Flight time 1h 10m
Altitude 30000
Route SISUD B544 NOMDA
Aircraft TBM8/L-SDFGIRWY/EB1

Departure

Time 2026-04-24 14:48
Airport Prince Mohammad Bin Abdulaziz Airport (OEMA)

Arrival

Time 2026-04-24 15:58
Airport King Abdulaziz International Airport (OEJN)
Time Latitude Longitude Altitude Speed Heading
2026-04-24 14:18 24.55126 39.69786 2099 ft 0 kts 240°
2026-04-24 14:32 24.55133 39.69798 2099 ft 0 kts 240°
2026-04-24 14:34 24.55144 39.69819 2099 ft 4 kts 243°
2026-04-24 14:34 24.55159 39.69841 2099 ft 3 kts 211°
2026-04-24 14:34 24.55166 39.69846 2099 ft 0 kts 211°
2026-04-24 14:42 24.55157 39.69864 2099 ft 4 kts 71°
2026-04-24 14:42 24.55157 39.69904 2099 ft 10 kts 141°
2026-04-24 14:42 24.55072 39.69955 2099 ft 14 kts 151°
2026-04-24 14:43 24.54997 39.69999 2099 ft 13 kts 151°
2026-04-24 14:43 24.54893 39.70062 2100 ft 22 kts 152°
2026-04-24 14:43 24.54754 39.70143 2101 ft 18 kts 157°
2026-04-24 14:43 24.54666 39.70165 2102 ft 12 kts 181°
2026-04-24 14:44 24.54537 39.70153 2102 ft 25 kts 183°
2026-04-24 14:44 24.54372 39.70143 2102 ft 16 kts 184°
2026-04-24 14:44 24.54299 39.70140 2103 ft 8 kts 174°
2026-04-24 14:44 24.54262 39.70159 2104 ft 4 kts 130°
2026-04-24 14:45 24.54249 39.70200 2106 ft 10 kts 94°
2026-04-24 14:45 24.54244 39.70318 2104 ft 20 kts 94°
2026-04-24 14:45 24.54230 39.70448 2100 ft 17 kts 110°
2026-04-24 14:45 24.54110 39.70542 2100 ft 26 kts 150°
2026-04-24 14:46 24.53978 39.70624 2099 ft 16 kts 150°
2026-04-24 14:46 24.53876 39.70686 2099 ft 19 kts 152°
2026-04-24 14:46 24.53768 39.70756 2099 ft 14 kts 138°
2026-04-24 14:46 24.53755 39.70853 2100 ft 19 kts 77°
2026-04-24 14:47 24.53775 39.70969 2101 ft 27 kts 78°
2026-04-24 14:47 24.53843 39.71141 2106 ft 10 kts 352°
2026-04-24 14:47 24.54026 39.71098 2105 ft 52 kts 348°
2026-04-24 14:47 24.54550 39.70985 2115 ft 98 kts 348°
2026-04-24 14:48 24.55268 39.70832 2313 ft 116 kts 341°
2026-04-24 14:48 24.56118 39.70600 2668 ft 133 kts 341°
2026-04-24 14:48 24.57049 39.70443 3191 ft 137 kts 348°
2026-04-24 14:48 24.57979 39.70266 3713 ft 134 kts 343°
2026-04-24 14:49 24.58897 39.70056 4195 ft 136 kts 343°
2026-04-24 14:49 24.59831 39.69858 4684 ft 137 kts 343°
2026-04-24 14:49 24.60770 39.69655 5123 ft 138 kts 342°
2026-04-24 14:49 24.61720 39.69449 5537 ft 141 kts 342°
2026-04-24 14:50 24.62691 39.69240 5946 ft 143 kts 341°
2026-04-24 14:50 24.63683 39.69031 6338 ft 146 kts 340°
2026-04-24 14:50 24.64690 39.68815 6759 ft 148 kts 341°
2026-04-24 14:50 24.65295 39.68688 7029 ft 148 kts 340°
2026-04-24 14:51 24.66313 39.68467 7453 ft 149 kts 337°
2026-04-24 14:51 24.67167 39.67939 7887 ft 137 kts 304°
2026-04-24 14:51 24.67673 39.67084 8271 ft 131 kts 281°
2026-04-24 14:51 24.67786 39.66128 8714 ft 124 kts 259°
2026-04-24 14:52 24.67646 39.65187 9134 ft 127 kts 256°
2026-04-24 14:52 24.67525 39.64224 9584 ft 128 kts 256°
2026-04-24 14:52 24.67391 39.63262 9997 ft 127 kts 255°
2026-04-24 14:52 24.67257 39.62299 10381 ft 128 kts 255°
2026-04-24 14:53 24.67120 39.61336 10758 ft 128 kts 254°
2026-04-24 14:53 24.66985 39.60374 11112 ft 127 kts 255°
2026-04-24 14:53 24.66857 39.59427 11547 ft 125 kts 252°
2026-04-24 14:53 24.66719 39.58476 11918 ft 128 kts 253°
2026-04-24 14:54 24.66587 39.57503 12327 ft 129 kts 252°
2026-04-24 14:54 24.66451 39.56536 12753 ft 128 kts 252°
2026-04-24 14:54 24.66359 39.55882 13032 ft 128 kts 251°
2026-04-24 14:54 24.66222 39.54921 13415 ft 130 kts 251°
2026-04-24 14:55 24.66084 39.53938 13808 ft 130 kts 251°
2026-04-24 14:55 24.65948 39.52957 14188 ft 129 kts 251°
2026-04-24 14:55 24.65812 39.51985 14576 ft 128 kts 250°
2026-04-24 14:55 24.65675 39.51013 14927 ft 128 kts 250°
2026-04-24 14:56 24.65539 39.50051 15358 ft 127 kts 250°
2026-04-24 14:56 24.65405 39.49090 15753 ft 126 kts 251°
2026-04-24 14:56 24.65270 39.48138 16140 ft 126 kts 250°
2026-04-24 14:56 24.65137 39.47188 16519 ft 126 kts 250°
2026-04-24 14:57 24.64999 39.46225 16838 ft 128 kts 250°
2026-04-24 14:57 24.64868 39.45271 17295 ft 125 kts 250°
2026-04-24 14:57 24.64735 39.44334 17681 ft 124 kts 250°
2026-04-24 14:57 24.64602 39.43398 18027 ft 124 kts 250°
2026-04-24 14:58 24.64471 39.42473 18280 ft 121 kts 250°
2026-04-24 14:58 24.64338 39.41543 18538 ft 126 kts 251°
2026-04-24 14:58 24.64206 39.40588 18870 ft 126 kts 251°
2026-04-24 14:58 24.64069 39.39631 19186 ft 128 kts 251°
2026-04-24 14:59 24.63932 39.38661 19484 ft 129 kts 252°
2026-04-24 14:59 24.63792 39.37680 19782 ft 131 kts 252°
2026-04-24 14:59 24.63743 39.37340 19886 ft 131 kts 252°
2026-04-24 15:00 24.63725 39.37208 19921 ft 131 kts 252°
2026-04-24 15:00 24.63582 39.36210 20209 ft 133 kts 253°
2026-04-24 15:00 24.63440 39.35199 20502 ft 135 kts 253°
2026-04-24 15:00 24.63295 39.34178 20801 ft 136 kts 253°
2026-04-24 15:01 24.63118 39.33157 21106 ft 134 kts 244°
2026-04-24 15:01 24.62549 39.32366 21391 ft 136 kts 219°
2026-04-24 15:01 24.61650 39.32003 21657 ft 149 kts 193°
2026-04-24 15:01 24.60579 39.32117 21911 ft 158 kts 184°
2026-04-24 15:02 24.59460 39.32253 22007 ft 169 kts 185°
2026-04-24 15:02 24.58226 39.32393 22015 ft 187 kts 184°
2026-04-24 15:02 24.56880 39.32559 22020 ft 202 kts 183°
2026-04-24 15:02 24.55437 39.32744 22022 ft 215 kts 182°
2026-04-24 15:03 24.54022 39.32925 22020 ft 226 kts 182°
2026-04-24 15:03 24.52428 39.33126 22019 ft 235 kts 182°
2026-04-24 15:03 24.50777 39.33333 22025 ft 242 kts 181°
2026-04-24 15:04 24.49082 39.33547 22023 ft 248 kts 181°
2026-04-24 15:04 24.47376 39.33761 22016 ft 252 kts 181°
2026-04-24 15:04 24.45624 39.33980 22015 ft 255 kts 182°
2026-04-24 15:04 24.43859 39.34203 22025 ft 256 kts 181°
2026-04-24 15:05 24.42079 39.34425 22022 ft 258 kts 181°
2026-04-24 15:05 24.40283 39.34646 22036 ft 260 kts 181°
2026-04-24 15:05 24.39089 39.34794 22025 ft 261 kts 181°
2026-04-24 15:05 24.36666 39.35100 22029 ft 262 kts 181°
2026-04-24 15:06 24.35463 39.35253 22031 ft 263 kts 181°
2026-04-24 15:06 24.33643 39.35477 22027 ft 264 kts 181°
2026-04-24 15:06 24.29595 39.35977 22039 ft 265 kts 181°
2026-04-24 15:07 24.27764 39.36208 22029 ft 265 kts 181°
2026-04-24 15:07 24.25932 39.36438 22030 ft 265 kts 181°
2026-04-24 15:07 24.24100 39.36664 22023 ft 265 kts 181°
2026-04-24 15:07 24.22272 39.36887 22011 ft 262 kts 181°
2026-04-24 15:08 24.20465 39.37118 22036 ft 262 kts 181°
2026-04-24 15:08 24.18649 39.37344 22034 ft 263 kts 181°
2026-04-24 15:08 24.16826 39.37568 22035 ft 264 kts 181°
2026-04-24 15:08 24.14997 39.37794 22034 ft 265 kts 181°
2026-04-24 15:09 24.13164 39.38023 22032 ft 265 kts 181°
2026-04-24 15:09 24.11327 39.38251 22033 ft 266 kts 181°
2026-04-24 15:09 24.09491 39.38479 22031 ft 266 kts 181°
2026-04-24 15:09 24.07652 39.38708 22033 ft 266 kts 181°
2026-04-24 15:10 24.05813 39.38935 22028 ft 266 kts 182°
2026-04-24 15:10 24.03976 39.39162 22029 ft 266 kts 181°
2026-04-24 15:10 24.02139 39.39392 22027 ft 266 kts 180°
2026-04-24 15:10 24.00300 39.39620 22031 ft 266 kts 181°
2026-04-24 15:11 23.98459 39.39846 22027 ft 267 kts 181°
2026-04-24 15:11 23.96638 39.40070 22026 ft 267 kts 181°
2026-04-24 15:11 23.94799 39.40301 22030 ft 263 kts 181°
2026-04-24 15:11 23.92977 39.40525 22040 ft 264 kts 181°
2026-04-24 15:12 23.91152 39.40752 22040 ft 264 kts 181°
2026-04-24 15:12 23.87489 39.41204 22034 ft 265 kts 181°
2026-04-24 15:12 23.85651 39.41431 22035 ft 266 kts 181°
2026-04-24 15:13 23.83810 39.41659 22034 ft 266 kts 181°
2026-04-24 15:13 23.81966 39.41887 22033 ft 267 kts 181°
2026-04-24 15:13 23.80123 39.42114 22029 ft 267 kts 181°
2026-04-24 15:13 23.78279 39.42343 22031 ft 267 kts 180°
2026-04-24 15:14 23.76436 39.42568 22027 ft 266 kts 181°
2026-04-24 15:14 23.74628 39.42503 22020 ft 256 kts 196°
2026-04-24 15:14 23.72930 39.41966 22017 ft 253 kts 203°
2026-04-24 15:14 23.71253 39.41380 22024 ft 253 kts 202°
2026-04-24 15:15 23.69569 39.40806 22020 ft 254 kts 202°
2026-04-24 15:15 23.67885 39.40224 22022 ft 254 kts 202°
2026-04-24 15:15 23.66200 39.39642 22017 ft 254 kts 202°
2026-04-24 15:15 23.64514 39.39058 22020 ft 255 kts 202°
2026-04-24 15:16 23.62823 39.38473 22020 ft 256 kts 202°
2026-04-24 15:16 23.61126 39.37887 22013 ft 254 kts 202°
2026-04-24 15:16 23.59433 39.37304 22016 ft 256 kts 202°
2026-04-24 15:16 23.57734 39.36713 22012 ft 257 kts 202°
2026-04-24 15:17 23.56029 39.36122 22011 ft 257 kts 202°
2026-04-24 15:17 23.54319 39.35533 22008 ft 258 kts 202°
2026-04-24 15:17 23.52611 39.34942 22008 ft 258 kts 202°
2026-04-24 15:17 23.50898 39.34352 22006 ft 258 kts 202°
2026-04-24 15:18 23.49187 39.33761 22003 ft 258 kts 202°
2026-04-24 15:18 23.47476 39.33169 21999 ft 258 kts 202°
2026-04-24 15:18 23.45765 39.32577 21997 ft 258 kts 202°
2026-04-24 15:18 23.44053 39.31988 21991 ft 258 kts 202°
2026-04-24 15:19 23.42343 39.31399 21990 ft 258 kts 202°
2026-04-24 15:19 23.40636 39.30809 21990 ft 258 kts 202°
2026-04-24 15:19 23.38948 39.30227 21982 ft 258 kts 202°
2026-04-24 15:19 23.37218 39.29631 21980 ft 258 kts 202°
2026-04-24 15:20 23.35529 39.29049 21979 ft 258 kts 202°
2026-04-24 15:20 23.33818 39.28460 21972 ft 258 kts 202°
2026-04-24 15:20 23.32106 39.27869 21971 ft 258 kts 202°
2026-04-24 15:20 23.30395 39.27281 21968 ft 258 kts 202°
2026-04-24 15:21 23.28685 39.26693 21966 ft 258 kts 202°
2026-04-24 15:21 23.26975 39.26103 21964 ft 258 kts 202°
2026-04-24 15:21 23.25264 39.25516 21960 ft 258 kts 202°
2026-04-24 15:21 23.23555 39.24929 21959 ft 257 kts 202°
2026-04-24 15:22 23.21849 39.24341 21955 ft 257 kts 202°
2026-04-24 15:22 23.20142 39.23756 21951 ft 257 kts 202°
2026-04-24 15:22 23.18989 39.23359 21949 ft 257 kts 202°
2026-04-24 15:23 23.15569 39.22182 21943 ft 258 kts 202°
2026-04-24 15:23 23.12150 39.21009 21941 ft 257 kts 202°
2026-04-24 15:23 23.09888 39.20233 21941 ft 257 kts 202°
2026-04-24 15:24 23.05337 39.18672 21936 ft 258 kts 202°
2026-04-24 15:25 23.01912 39.17497 21938 ft 258 kts 202°
2026-04-24 15:25 22.98484 39.16323 21938 ft 258 kts 202°
2026-04-24 15:26 22.93336 39.14560 21931 ft 259 kts 202°
2026-04-24 15:27 22.88160 39.12788 21739 ft 265 kts 202°
2026-04-24 15:27 22.82686 39.10914 20848 ft 283 kts 201°
2026-04-24 15:28 22.74859 39.09834 19939 ft 288 kts 184°
2026-04-24 15:29 22.70953 39.09842 19924 ft 272 kts 191°
2026-04-24 15:30 22.65405 39.09135 19696 ft 270 kts 191°
2026-04-24 15:31 22.57791 39.08184 18775 ft 278 kts 190°
2026-04-24 15:32 22.50177 39.07239 18142 ft 271 kts 190°
2026-04-24 15:33 22.42776 39.06320 17523 ft 267 kts 190°
2026-04-24 15:33 22.37526 39.05670 17080 ft 266 kts 190°
2026-04-24 15:34 22.33852 39.05214 16776 ft 266 kts 190°
2026-04-24 15:35 22.28376 39.04536 16327 ft 265 kts 190°
2026-04-24 15:35 22.24715 39.04082 16027 ft 265 kts 190°
2026-04-24 15:35 22.22888 39.03856 15880 ft 265 kts 190°
2026-04-24 15:36 22.21058 39.03630 15728 ft 264 kts 190°
2026-04-24 15:36 22.17404 39.03180 15439 ft 264 kts 190°
2026-04-24 15:36 22.15579 39.02954 15296 ft 264 kts 190°
2026-04-24 15:37 22.13755 39.02726 15152 ft 264 kts 190°
2026-04-24 15:37 22.11930 39.02501 15007 ft 264 kts 190°
2026-04-24 15:37 22.10108 39.02277 14863 ft 264 kts 190°
2026-04-24 15:37 22.08287 39.02052 14719 ft 264 kts 190°
2026-04-24 15:38 22.06464 39.01827 14580 ft 263 kts 190°
2026-04-24 15:38 22.04642 39.01602 14438 ft 263 kts 190°
2026-04-24 15:38 22.02822 39.01377 14300 ft 263 kts 190°
2026-04-24 15:38 22.01081 39.01163 14160 ft 263 kts 190°
2026-04-24 15:39 21.99264 39.00938 14025 ft 263 kts 190°
2026-04-24 15:39 21.97445 39.00714 13882 ft 263 kts 190°
2026-04-24 15:39 21.95626 39.00490 13749 ft 263 kts 190°
2026-04-24 15:39 21.93804 39.00265 13596 ft 264 kts 190°
2026-04-24 15:40 21.91978 39.00040 13396 ft 265 kts 190°
2026-04-24 15:40 21.90143 38.99814 13192 ft 266 kts 189°
2026-04-24 15:40 21.88303 38.99588 12996 ft 266 kts 190°
2026-04-24 15:40 21.86476 38.99364 12915 ft 261 kts 189°
2026-04-24 15:41 21.84687 38.99146 12913 ft 257 kts 189°
2026-04-24 15:41 21.82926 38.98930 12909 ft 253 kts 190°
2026-04-24 15:41 21.81182 38.98716 12911 ft 251 kts 190°
2026-04-24 15:41 21.79450 38.98503 12907 ft 250 kts 190°
2026-04-24 15:42 21.77715 38.98432 12904 ft 253 kts 177°
2026-04-24 15:42 21.76006 38.98940 12908 ft 257 kts 163°
2026-04-24 15:42 21.74360 38.99617 12906 ft 257 kts 164°
2026-04-24 15:42 21.72686 39.00282 12906 ft 256 kts 164°
2026-04-24 15:43 21.71015 39.00949 12908 ft 256 kts 164°
2026-04-24 15:43 21.69342 39.01621 12907 ft 256 kts 164°
2026-04-24 15:43 21.67673 39.02291 12904 ft 256 kts 164°
2026-04-24 15:43 21.66004 39.02960 12909 ft 256 kts 164°
2026-04-24 15:44 21.64330 39.03618 12908 ft 256 kts 165°
2026-04-24 15:44 21.62658 39.04268 12907 ft 256 kts 165°
2026-04-24 15:44 21.60969 39.04928 12777 ft 261 kts 165°
2026-04-24 15:44 21.59240 39.05603 12543 ft 267 kts 164°
2026-04-24 15:45 21.57477 39.06293 12276 ft 272 kts 164°
2026-04-24 15:45 21.55683 39.06997 11994 ft 276 kts 164°
2026-04-24 15:45 21.53879 39.07705 11705 ft 277 kts 164°
2026-04-24 15:45 21.52064 39.08415 11460 ft 277 kts 164°
2026-04-24 15:46 21.50254 39.09127 11190 ft 277 kts 163°
2026-04-24 15:46 21.48445 39.09846 10907 ft 278 kts 163°
2026-04-24 15:46 21.46634 39.10563 10618 ft 277 kts 163°
2026-04-24 15:46 21.44823 39.11279 10333 ft 277 kts 163°
2026-04-24 15:47 21.43015 39.11993 10047 ft 277 kts 163°
2026-04-24 15:47 21.41208 39.12707 9758 ft 276 kts 163°
2026-04-24 15:47 21.39410 39.13419 9444 ft 275 kts 163°
2026-04-24 15:47 21.37615 39.14128 9163 ft 273 kts 163°
2026-04-24 15:48 21.35827 39.14838 8877 ft 278 kts 162°
2026-04-24 15:48 21.33993 39.15587 8585 ft 282 kts 162°
2026-04-24 15:48 21.32167 39.16278 8299 ft 275 kts 164°
2026-04-24 15:48 21.30377 39.16965 8015 ft 271 kts 162°
2026-04-24 15:49 21.28627 39.17679 7735 ft 268 kts 162°
2026-04-24 15:49 21.26994 39.18629 7454 ft 270 kts 142°
2026-04-24 15:49 21.25821 39.20206 7182 ft 274 kts 122°
2026-04-24 15:49 21.25255 39.22156 6907 ft 277 kts 99°
2026-04-24 15:50 21.25410 39.24212 6627 ft 280 kts 76°
2026-04-24 15:50 21.26285 39.26069 6332 ft 281 kts 52°
2026-04-24 15:50 21.27754 39.27428 6040 ft 280 kts 30°
2026-04-24 15:50 21.29588 39.28089 5742 ft 278 kts
2026-04-24 15:51 21.31501 39.27961 5455 ft 276 kts 344°
2026-04-24 15:51 21.33268 39.27276 5170 ft 273 kts 338°
2026-04-24 15:51 21.35051 39.26570 4887 ft 273 kts 339°
2026-04-24 15:51 21.36837 39.25876 4602 ft 273 kts 339°
2026-04-24 15:52 21.38622 39.25168 4307 ft 274 kts 339°
2026-04-24 15:52 21.40406 39.24462 4018 ft 273 kts 339°
2026-04-24 15:52 21.42192 39.23757 3733 ft 273 kts 339°
2026-04-24 15:52 21.43975 39.23054 3446 ft 273 kts 339°
2026-04-24 15:53 21.45754 39.22353 3167 ft 272 kts 339°
2026-04-24 15:53 21.47515 39.21659 3093 ft 265 kts 339°
2026-04-24 15:53 21.49219 39.20985 3090 ft 259 kts 339°
2026-04-24 15:53 21.50899 39.20321 3085 ft 255 kts 339°
2026-04-24 15:54 21.52581 39.19631 2797 ft 264 kts 339°
2026-04-24 15:54 21.54324 39.18964 2501 ft 267 kts 340°
2026-04-24 15:54 21.55808 39.18451 2085 ft 189 kts 342°
2026-04-24 15:54 21.57027 39.18007 1766 ft 186 kts 337°
2026-04-24 15:55 21.58211 39.17476 1450 ft 184 kts 333°
2026-04-24 15:55 21.59373 39.16964 1239 ft 177 kts 337°
2026-04-24 15:55 21.59607 39.16872 1233 ft 172 kts 338°
2026-04-24 15:55 21.60520 39.16524 1135 ft 157 kts 339°
2026-04-24 15:56 21.60910 39.16391 1116 ft 153 kts 341°
2026-04-24 15:56 21.61578 39.16143 974 ft 152 kts 337°
2026-04-24 15:56 21.62531 39.15733 841 ft 144 kts 336°
2026-04-24 15:56 21.63463 39.15378 717 ft 138 kts 337°
2026-04-24 15:57 21.64313 39.15069 565 ft 122 kts 337°
2026-04-24 15:57 21.65069 39.14748 396 ft 110 kts 333°
2026-04-24 15:57 21.65532 39.14549 324 ft 106 kts 337°
2026-04-24 15:57 21.66341 39.14251 203 ft 78 kts 331°
2026-04-24 15:58 21.66868 39.14031 109 ft 81 kts 335°
2026-04-24 15:58 21.67377 39.13830 33 ft 75 kts 335°
2026-04-24 15:58 21.67726 39.13688 20 ft 38 kts 340°
2026-04-24 15:58 21.67980 39.13585 19 ft 41 kts 337°
2026-04-24 15:59 21.68270 39.13475 17 ft 46 kts 340°
2026-04-24 15:59 21.68562 39.13363 17 ft 33 kts 345°
2026-04-24 15:59 21.68684 39.13321 17 ft 11 kts 341°
2026-04-24 15:59 21.68797 39.13274 17 ft 25 kts 339°
2026-04-24 16:00 21.68981 39.13208 18 ft 30 kts 348°
2026-04-24 16:00 21.69156 39.13198 17 ft 17 kts
2026-04-24 16:00 21.69241 39.13216 17 ft 13 kts 13°
2026-04-24 16:00 21.69268 39.13224 17 ft 0 kts 14°
2026-04-24 16:01 21.69298 39.13233 17 ft 16 kts 20°
2026-04-24 16:01 21.69382 39.13346 18 ft 17 kts 69°
2026-04-24 16:02 21.69412 39.13425 18 ft 10 kts 66°
2026-04-24 16:02 21.69394 39.13507 19 ft 12 kts 160°
2026-04-24 16:02 21.69346 39.13522 19 ft 4 kts 165°
2026-04-24 16:02 21.69339 39.13524 19 ft 0 kts 165°
2026-04-24 16:03 21.69335 39.13526 19 ft 4 kts 163°
2026-04-24 16:03 21.69285 39.13541 19 ft 6 kts 194°
2026-04-24 16:03 21.69269 39.13508 19 ft 4 kts 257°
2026-04-24 16:04 21.69264 39.13493 19 ft 2 kts 250°
2026-04-24 16:04 21.69262 39.13488 19 ft 1 kts 252°
2026-04-24 16:04 21.69262 39.13487 19 ft 0 kts 252°